DB0MI Weather Reports


time (UTC)temp
C
wind
direction
speed
KPH
gust
KPH
rain 1hr
cm
rain 24hr
cm
rain mn
cm
humidity
%
barometer
mb
20260506143141 17 202 0.0 0.0 0.00 0.46 0.00 63 1006.0
20260506142141 17 270 0.0 0.0 0.00 0.46 0.00 63 1006.2
20260506141141 17 202 0.0 0.0 0.00 0.46 0.00 62 1006.2
20260506140141 17 45 0.0 0.0 0.00 0.46 0.00 62 1006.3
20260506135141 17 270 0.0 0.0 0.00 0.56 0.00 63 1006.3
20260506134141 17 67 0.0 0.0 0.00 0.56 0.00 65 1006.4
20260506133141 17 157 0.0 0.0 0.00 0.56 0.00 65 1006.3
20260506132141 17 225 0.0 0.0 0.00 0.56 0.00 63 1006.3
20260506131141 17 225 0.0 0.0 0.00 0.56 0.00 63 1006.1
20260506130141 17 247 0.0 0.0 0.00 0.56 0.00 64 1006.2
20260506125141 17 270 0.0 0.0 0.00 0.56 0.00 63 1006.1
20260506124142 17 247 0.0 0.0 0.00 0.56 0.00 65 1006.1
20260506123141 17 247 0.0 0.0 0.00 0.56 0.00 68 1006.2
20260506122141 17 45 0.0 0.0 0.00 0.56 0.00 67 1006.2
20260506121141 17 90 0.0 0.0 0.00 0.56 0.00 66 1006.2
20260506120141 17 180 0.0 0.0 0.00 0.56 0.00 69 1006.4
20260506115142 17 225 0.0 0.0 0.00 0.56 0.00 68 1006.4
20260506114142 17 225 0.0 0.0 0.00 0.56 0.00 68 1006.4
20260506113142 16 157 0.0 0.0 0.00 0.56 0.00 68 1006.5
20260506112142 17 225 0.0 0.0 0.00 0.56 0.00 67 1006.6
20260506111142 18 270 0.0 0.0 0.00 0.56 0.00 65 1006.5
20260506110142 19 202 0.0 0.0 0.00 0.56 0.00 62 1006.5
20260506105142 20 225 0.0 0.0 0.00 0.56 0.00 62 1006.3
20260506104142 20 202 0.0 0.0 0.00 0.56 0.00 66 1006.1
20260506103142 19 202 0.0 0.0 0.00 0.56 0.00 68 1006.2
20260506102142 17 135 0.0 0.0 0.00 0.56 0.00 70 1006.1
20260506101142 18 225 0.0 0.0 0.00 0.56 0.00 68 1006.0
20260506100142 18 202 0.0 0.0 0.00 0.56 0.00 71 1006.2
20260506095142 18 112 0.0 0.0 0.00 0.56 0.00 71 1006.0
20260506094142 17 225 0.0 0.0 0.00 0.56 0.00 76 1006.1
20260506093142 16 247 0.0 0.0 0.00 0.56 0.00 77 1006.0
20260506092142 15 157 0.0 0.0 0.00 0.56 0.00 78 1005.9
20260506091142 16 202 0.0 0.0 0.00 0.56 0.00 77 1005.8
20260506090142 17 90 0.0 0.0 0.00 0.56 0.00 76 1005.8
20260506085142 17 180 0.0 0.0 0.00 0.56 0.00 75 1005.7
20260506084142 17 180 0.0 0.0 0.00 0.56 0.00 78 1005.4
20260506083142 16 202 0.0 0.0 0.00 0.56 0.00 77 1005.2
20260506082142 16 225 0.0 0.0 0.00 0.56 0.00 81 1005.2
20260506081142 15 225 0.0 0.0 0.00 0.56 0.00 82 1005.1
20260506080142 15 112 0.0 0.0 0.00 0.56 0.00 84 1005.0
20260506073143 13 247 0.0 0.0 0.00 0.56 0.00 92 1005.3
20260506072142 13 270 0.0 0.0 0.00 0.56 0.00 93 1005.2
20260506071142 12 247 0.0 0.0 0.00 0.56 0.00 93 1005.2
20260506070142 11 247 0.0 0.0 0.00 0.56 0.00 94 1005.1
20260506062142 10 225 0.0 0.0 0.00 0.56 0.00 93 1005.1
20260506061142 11 247 0.0 0.0 0.00 0.56 0.00 93 1005.1
20260506060142 11 270 0.0 0.0 0.00 0.56 0.00 93 1005.1
20260506051142 10 225 0.0 0.0 0.00 0.56 0.00 93 1005.3
20260506050142 10 225 0.0 0.0 0.00 0.56 0.00 93 1005.1
20260506044143 10 202 0.0 0.0 0.00 0.56 0.00 93 1005.0
20260506043142 10 202 0.0 0.0 0.00 0.56 0.00 93 1005.1
20260506042143 10 225 0.0 0.0 0.00 0.56 0.00 93 1005.2
20260506041143 10 225 0.0 0.0 0.00 0.56 0.00 93 1005.2
20260506040143 10 247 0.0 0.0 0.00 0.56 0.00 93 1005.2
20260506035143 10 225 0.0 0.0 0.00 0.56 0.00 93 1005.1
20260506034143 10 67 0.0 0.0 0.00 0.56 0.00 93 1005.2
20260506033143 10 67 0.0 0.0 0.00 0.56 0.00 93 1005.4
20260506032143 10 247 0.0 0.0 0.00 0.56 0.00 93 1005.4
20260506031143 10 45 0.0 0.0 0.00 0.56 0.00 93 1005.4
20260506030143 10 157 0.0 0.0 0.00 0.56 0.00 93 1005.6
20260506025143 10 135 0.0 0.0 0.00 0.56 0.00 93 1005.5
20260506024143 10 270 0.0 0.0 0.00 0.56 0.00 93 1005.5
20260506023143 10 157 0.0 0.0 0.00 0.56 0.00 93 1005.5
20260506022143 10 202 0.0 0.0 0.00 0.56 0.00 93 1005.6
20260506021143 10 157 0.0 0.0 0.00 0.56 0.00 93 1005.5
20260506020143 10 247 0.0 0.0 0.00 0.56 0.00 93 1005.6
20260506015143 10 270 0.0 0.0 0.00 0.56 0.00 93 1005.5
20260506014143 10 225 0.0 0.0 0.00 0.56 0.00 93 1005.7
20260506013143 10 112 0.0 0.0 0.00 0.56 0.00 93 1005.8
20260506012143 10 247 0.0 0.0 0.00 0.56 0.00 93 1005.7
20260506011143 10 247 0.0 0.0 0.00 0.56 0.00 93 1005.8
20260506010143 10 202 0.0 0.0 0.00 0.56 0.00 93 1005.9
20260506005143 10 225 0.0 0.0 0.00 0.56 0.00 93 1005.8
20260506004143 10 225 0.0 0.0 0.00 0.56 0.00 93 1006.0
20260506003143 10 112 0.0 0.0 0.00 0.56 0.00 93 1005.9
20260506002143 10 180 0.0 0.0 0.00 0.56 0.00 93 1006.0
20260506001143 10 270 0.0 0.0 0.00 0.56 0.00 93 1005.9
20260506000143 11 180 0.0 0.0 0.00 0.56 0.00 93 1006.1
20260505235143 11 225 0.0 0.0 0.00 0.56 0.00 93 1006.2
20260505234143 11 270 0.0 0.0 0.00 0.56 0.00 93 1006.4
20260505233143 11 180 0.0 0.0 0.05 0.56 0.00 93 1006.4
20260505232143 11 292 0.0 0.0 0.05 0.56 0.00 92 1006.4
20260505231143 11 247 0.0 0.0 0.05 0.56 0.00 93 1006.4
20260505230143 11 247 0.0 0.0 0.10 0.56 0.00 92 1006.4
20260505225143 11 247 0.0 0.0 0.10 0.56 0.00 92 1006.5
20260505224143 11 202 0.0 0.0 0.10 0.56 0.00 92 1006.4
20260505223143 11 180 0.0 0.0 0.05 0.51 0.00 92 1006.6
20260505222143 11 225 0.0 0.0 0.05 0.51 0.00 92 1006.4
20260505221143 11 247 0.0 0.0 0.05 0.51 0.00 92 1006.5
20260505220143 11 247 0.0 0.0 0.00 0.46 0.00 92 1006.5
20260505215143 11 112 0.0 0.0 0.00 0.46 0.00 92 1006.5
20260505214143 11 202 0.0 0.0 0.00 0.46 0.00 92 1006.6
20260505213143 11 135 0.0 0.0 0.00 0.46 0.00 92 1006.6
20260505212143 11 157 0.0 0.0 0.00 0.46 0.00 92 1006.7
20260505211144 11 157 0.0 0.0 0.00 0.46 0.00 92 1006.6
20260505210143 11 90 0.0 0.0 0.00 0.46 0.00 92 1006.7
20260505205144 11 135 0.0 0.0 0.00 0.46 0.00 92 1006.8
20260505204144 11 180 0.0 0.0 0.00 0.46 0.00 92 1006.8
20260505203144 11 180 0.0 0.0 0.00 0.46 0.00 92 1006.8
20260505202144 11 180 0.0 0.0 0.00 0.46 0.00 92 1006.8
20260505201144 11 180 0.0 0.0 0.00 0.46 0.00 91 1006.5
20260505200144 11 180 0.0 0.0 0.00 0.46 0.00 91 1006.5
20260505195144 11 180 0.0 0.0 0.00 0.46 0.00 91 1006.4
20260505194144 11 180 0.0 0.0 0.00 0.46 0.00 91 1006.6
20260505193144 11 180 0.0 0.0 0.00 0.46 0.00 92 1006.3
20260505192144 11 180 0.0 0.0 0.00 0.46 0.00 91 1006.2
20260505191144 11 180 0.0 0.0 0.00 0.46 0.00 91 1006.4
20260505190144 11 180 0.0 0.0 0.00 0.46 0.00 91 1006.4
20260505185144 11 180 0.0 0.0 0.00 0.46 0.00 91 1006.4
20260505184144 11 180 0.0 0.0 0.00 0.46 0.00 91 1006.3
20260505183144 11 180 0.0 0.0 0.00 0.46 0.00 91 1006.1
20260505182144 12 180 0.0 0.0 0.00 0.46 0.00 91 1006.1
20260505181144 12 180 0.0 0.0 0.00 0.46 0.00 91 1006.1
20260505180144 12 180 0.0 0.0 0.00 0.46 0.00 91 1006.1
20260505175144 12 180 0.0 0.0 0.00 0.46 0.00 91 1006.3
20260505174144 12 180 0.0 0.0 0.00 0.46 0.00 90 1006.3
20260505173144 12 180 0.0 0.0 0.00 0.46 0.00 90 1006.6
20260505172144 12 180 0.0 0.0 0.00 0.46 0.00 90 1006.6
20260505171144 12 180 0.0 0.0 0.05 0.46 0.00 90 1006.5
20260505170144 12 180 0.0 0.0 0.05 0.46 0.00 90 1006.7
20260505165144 12 157 0.0 0.0 0.10 0.46 0.00 90 1006.6
20260505164144 12 157 0.0 0.0 0.10 0.46 0.00 90 1006.8
20260505163144 12 180 0.0 0.0 0.15 0.46 0.00 89 1006.9
20260505162144 12 180 0.0 0.0 0.20 0.46 0.00 89 1007.1
20260505161144 12 180 0.0 0.0 0.15 0.41 0.00 89 1007.1
20260505160144 12 225 0.0 0.0 0.20 0.36 0.00 88 1007.4
20260505153144 12 225 0.0 0.0 0.30 0.30 0.00 86 1007.7
20260505152144 13 135 0.0 0.0 0.25 0.25 0.00 85 1007.6
20260505151144 13 247 0.0 0.0 0.25 0.25 0.00 83 1007.7
20260505150144 13 247 0.0 0.0 0.15 0.15 0.00 81 1007.7